[[{"header":{"parameterUnit":"m.s-1","parameterCategory":1,"la1":30.2991,"la2":30.254,"lo1":-89.0895,"lo2":-89.0444,"dy":0.0017,"dx":0.0017,"nx":28,"ny":28,"refTime":"2024-04-03T09:00:00:Z","depth":0,"parameterNumber":2,"parameterNumberName":"U-component_of_WINDS"},"data":[0,0,0,0,0,0,0,0,0,0,0,0,0,0,0,0,0,0,0,0,0,0,0,0,0,0,0,0,0,0,0,0,0,0,0,0,0,0,0,0,0,0,0,0,0,0,0,0,0,0,0,0,0,0,0,0,0,0,5.2302,5.2303,0,5.2415,5.2417,5.2418,5.2414,5.2413,5.2411,5.241,5.2526,5.2531,5.2535,0,0,0,0,0,0,0,0,0,0,0,0,0,5.2084,5.2088,5.2302,5.2303,5.2305,5.2415,5.2417,5.2418,5.2414,5.2413,5.2411,5.2409,5.2525,5.253,5.2535,0,0,0,0,0,0,0,0,0,0,0,0,0,5.2186,5.2089,5.2301,5.2316,5.2318,5.2415,5.2417,5.2419,5.2415,5.2413,5.241,5.2408,5.2523,5.2529,5.2536,5.2626,0,0,5.2557,5.256,0,0,0,0,0,0,0,0,5.218,5.2194,5.2312,5.2315,5.2318,5.2398,5.2382,5.2488,5.2415,5.2378,5.241,5.2407,5.2485,5.2495,5.2522,5.2631,5.2636,5.2558,5.2562,5.2565,5.2567,0,0,0,0,0,0,0,5.2173,5.2189,5.2347,5.2314,5.2318,5.2318,5.2329,5.2402,5.2444,5.2381,5.2381,5.2395,5.2487,5.2515,5.2524,5.2638,5.2558,5.2564,5.2568,5.2571,5.2828,5.2831,0,0,0,0,0,0,5.2163,5.2183,5.2343,5.235,5.2242,5.2323,5.2337,5.2375,5.2443,5.2451,5.2397,5.2394,5.2505,5.2516,5.2528,5.2639,5.2565,5.2571,5.2575,5.2826,5.2829,5.2832,0,0,0,0,0,0,5.2158,5.2177,5.2338,5.2267,5.2287,5.233,5.2373,5.2378,5.2407,5.2455,5.2462,5.2418,5.2503,5.2519,5.2602,5.2643,5.2574,5.2581,5.2823,5.2827,5.2831,5.2859,0,0,0,0,0,0,5.2152,5.2175,5.2209,5.2267,5.2291,5.2409,5.2375,5.2382,5.2419,5.2416,5.2477,5.2484,5.2503,5.2592,5.2609,5.2651,5.2586,5.2819,5.2824,5.2829,5.2855,5.2864,5.2872,0,0,0,0,0,5.2144,5.2212,5.2211,5.223,5.2334,5.2412,5.2425,5.2445,5.2422,5.2457,5.2488,5.2482,5.2636,5.26,5.2619,5.2664,5.2817,5.2823,5.2829,5.2851,5.2862,5.2872,0,0,0,0,0,0,5.2157,5.222,5.2219,5.2308,5.2355,5.2411,5.2455,5.2455,5.2509,5.2505,5.2527,5.2541,5.2624,5.2653,5.2612,5.2756,5.2723,5.2734,5.2734,5.2745,5.2753,5.2744,5.2592,0,0,0,0,0,5.217,5.2228,5.228,5.2354,5.2377,5.2412,5.2447,5.2458,5.2507,5.2527,5.2564,5.2612,5.2671,5.2709,5.2766,5.2859,5.2873,5.29,5.2908,5.2915,5.2923,5.2977,5.2989,5.2852,5.2852,5.2852,0,0,5.2198,5.224,5.2275,5.2357,5.2395,5.2455,5.2429,5.2493,5.2537,5.2536,5.2617,5.2647,5.2702,5.2791,5.2832,5.2817,5.2965,5.2923,5.2928,5.2933,5.2984,5.2997,5.3009,5.2857,5.2856,5.2855,0,0,5.228,5.2317,5.2383,5.2421,5.2478,5.2502,5.2518,5.2575,5.2594,5.2676,5.2677,5.2731,5.2832,5.2872,5.2905,5.3005,5.3003,5.3023,5.3066,5.3118,5.3129,5.3138,5.3175,5.3188,5.3031,5.3031,5.3032,0,5.2307,5.2397,5.2417,5.2482,5.2519,5.2521,5.2589,5.2626,5.2698,5.2724,5.2707,5.2835,5.2872,5.2971,5.2996,5.3023,5.3043,5.3016,5.3125,5.3135,5.3145,5.318,5.3193,5.3034,5.3033,5.3033,5.3033,0,5.2429,5.2491,5.2538,5.2609,5.2651,5.2717,5.2748,5.2789,5.2797,5.2822,5.2907,5.2952,5.3019,5.3043,5.3051,5.3144,5.3133,5.3121,5.3089,5.316,5.3193,5.3207,5.3037,5.3036,5.3035,5.3035,0,0,5.252,5.2603,5.262,5.2653,5.2717,5.2766,5.2833,5.2899,5.2934,5.2985,5.3042,5.3129,5.3118,5.3156,5.3169,5.3214,5.3292,5.3196,5.3198,5.3213,5.3398,5.3408,5.3423,5.3291,5.3293,5.3295,5.3394,0,5.2609,5.2727,5.2748,5.2852,5.2911,5.2916,5.2974,5.302,5.3047,5.3101,5.313,5.3191,5.3172,5.3195,5.324,5.3273,5.3329,5.3266,5.3345,5.3348,5.3331,5.344,5.345,5.354,5.3407,5.3409,5.3411,0,5.2728,5.2783,5.2892,5.2951,5.2976,5.3028,5.3092,5.3143,5.3196,5.3212,5.3256,5.3265,5.3336,5.3301,5.34,5.3356,5.339,5.3411,5.3415,5.3423,5.3383,5.3452,5.357,5.3583,5.3431,5.343,5.3428,0,5.2785,5.2886,5.2965,5.2993,5.3063,5.31,5.3131,5.3182,5.3221,5.3276,5.3302,5.3365,5.3399,5.3448,5.3474,5.3446,5.3571,5.3538,5.3587,5.3587,5.3613,5.3611,5.3739,5.3635,5.3634,5.3634,5.3634,0,5.2882,5.2949,5.2992,5.3041,5.3117,5.3141,5.3216,5.3246,5.3292,5.3347,5.3355,5.3407,5.3438,5.3494,5.3515,5.3594,5.361,5.3625,5.363,5.3625,5.3623,5.3647,5.3642,5.3638,5.3637,5.3636,5.3636,0,5.2958,5.2989,5.3076,5.3136,5.3152,5.3206,5.3257,5.3305,5.3332,5.3402,5.342,5.3462,5.353,5.356,5.3644,5.3658,5.3748,5.3748,5.373,5.3732,5.3779,5.3775,5.3927,5.3949,5.383,5.3831,5.3832,0,5.3018,5.307,5.3136,5.3173,5.3205,5.3266,5.3306,5.3332,5.3374,5.344,5.3481,5.3548,5.3604,5.3712,5.375,5.3815,5.3816,5.3866,5.3826,5.382,5.3818,5.3815,5.3821,5.3873,5.3874,5.3875,5.3875,0,5.3122,5.3135,5.3192,5.3256,5.3304,5.3355,5.3405,5.3436,5.347,5.3517,5.3586,5.363,5.3715,5.3783,5.385,5.3883,5.3886,5.3888,5.3903,5.3898,5.3885,5.3894,5.375,5.3884,5.3883,5.3883,5.3882,5.3882,5.3192,5.3239,5.3293,5.3357,5.3398,5.3445,5.3494,5.3527,5.3586,5.3657,5.367,5.3744,5.3798,5.3888,5.3924,5.3983,5.3971,5.3992,5.3998,5.4002,5.4006,5.3876,5.3995,5.3995,5.3994,5.3994,5.3994,0,5.3297,5.3332,5.3391,5.3461,5.3512,5.3511,5.3567,5.361,5.3675,5.3725,5.378,5.3861,5.3927,5.3971,5.4039,5.4077,5.4081,5.4094,5.4092,5.4099,5.4012,5.3992,5.4091,5.4091,5.4091,5.4091,5.4091,5.4091,5.3357,5.3437,5.3457,5.3558,5.3593,5.3666,5.3698,5.3742,5.3783,5.3872,5.3927,5.3956,5.4004,5.4076,5.4137,5.4148,5.4173,5.4187,5.4198,5.4115,5.4105,5.4096,5.4078,5.4192,5.4192,5.4281,5.4282,5.4282]},{"header":{"parameterUnit":"m.s-1","parameterCategory":1,"la1":30.2991,"la2":30.254,"lo1":-89.0895,"lo2":-89.0444,"dy":0.0017,"dx":0.0017,"nx":28,"ny":28,"refTime":"2024-04-03T09:00:00:Z","depth":0,"parameterNumber":3,"parameterNumberName":"V-component_of_WINDS"},"data":[0,0,0,0,0,0,0,0,0,0,0,0,0,0,0,0,0,0,0,0,0,0,0,0,0,0,0,0,0,0,0,0,0,0,0,0,0,0,0,0,0,0,0,0,0,0,0,0,0,0,0,0,0,0,0,0,0,0,-2.5464,-2.5465,0,-2.5571,-2.5572,-2.5573,-2.5577,-2.5576,-2.5575,-2.5573,-2.5686,-2.569,-2.5694,0,0,0,0,0,0,0,0,0,0,0,0,0,-2.5268,-2.5272,-2.5464,-2.5465,-2.5466,-2.557,-2.5572,-2.5573,-2.5577,-2.5576,-2.5574,-2.5573,-2.5684,-2.5689,-2.5694,0,0,0,0,0,0,0,0,0,0,0,0,0,-2.5362,-2.5273,-2.5464,-2.5481,-2.5484,-2.557,-2.5572,-2.5574,-2.5578,-2.5576,-2.5574,-2.5572,-2.5683,-2.5689,-2.5695,-2.5773,0,0,-2.5714,-2.5717,0,0,0,0,0,0,0,0,-2.5357,-2.5369,-2.5477,-2.548,-2.5483,-2.5558,-2.5544,-2.564,-2.5578,-2.5542,-2.5573,-2.5571,-2.5645,-2.5654,-2.5679,-2.5778,-2.5783,-2.5715,-2.5719,-2.5721,-2.5723,0,0,0,0,0,0,0,-2.535,-2.5365,-2.5506,-2.5479,-2.5482,-2.5485,-2.5496,-2.5563,-2.5603,-2.5545,-2.5546,-2.5558,-2.5647,-2.5673,-2.5682,-2.5784,-2.5715,-2.572,-2.5724,-2.5727,-2.5956,-2.5958,0,0,0,0,0,0,-2.534,-2.5359,-2.5503,-2.5509,-2.5414,-2.549,-2.5503,-2.5536,-2.5602,-2.5611,-2.556,-2.5558,-2.5663,-2.5674,-2.5685,-2.5783,-2.5721,-2.5727,-2.5731,-2.5954,-2.5956,-2.5959,0,0,0,0,0,0,-2.5336,-2.5353,-2.5498,-2.5435,-2.5453,-2.5495,-2.5533,-2.5539,-2.5566,-2.5613,-2.5621,-2.5579,-2.5662,-2.5677,-2.5751,-2.5787,-2.573,-2.5736,-2.5951,-2.5955,-2.5958,-2.5976,0,0,0,0,0,0,-2.533,-2.5351,-2.5379,-2.5435,-2.5457,-2.5561,-2.5535,-2.5543,-2.5576,-2.5575,-2.5633,-2.5641,-2.5662,-2.5742,-2.5758,-2.5794,-2.5741,-2.5948,-2.5953,-2.5957,-2.5973,-2.598,-2.5986,0,0,0,0,0,-2.5323,-2.538,-2.5381,-2.5398,-2.5493,-2.5563,-2.5575,-2.5597,-2.5579,-2.5609,-2.564,-2.5639,-2.578,-2.575,-2.5767,-2.5806,-2.5946,-2.5951,-2.5956,-2.597,-2.5979,-2.5986,0,0,0,0,0,0,-2.5328,-2.5388,-2.5389,-2.5466,-2.5509,-2.5563,-2.5602,-2.5605,-2.5655,-2.5652,-2.5677,-2.5691,-2.5765,-2.5793,-2.5758,-2.5887,-2.5861,-2.587,-2.5866,-2.5874,-2.5881,-2.5873,-2.5746,0,0,0,0,0,-2.5338,-2.5389,-2.5439,-2.5502,-2.5524,-2.5559,-2.559,-2.5603,-2.565,-2.5668,-2.5705,-2.5751,-2.5806,-2.5842,-2.5894,-2.5977,-2.5991,-2.6013,-2.602,-2.6025,-2.6033,-2.6082,-2.6093,-2.5976,-2.5976,-2.5976,0,0,-2.536,-2.5399,-2.5429,-2.5504,-2.5539,-2.5593,-2.5574,-2.5631,-2.5672,-2.5677,-2.575,-2.5779,-2.5833,-2.5912,-2.5949,-2.5938,-2.6068,-2.6032,-2.6035,-2.6041,-2.6088,-2.6099,-2.6109,-2.598,-2.5979,-2.5978,0,0,-2.5426,-2.546,-2.5517,-2.5553,-2.5607,-2.563,-2.5644,-2.5699,-2.5718,-2.5791,-2.5797,-2.5847,-2.594,-2.5979,-2.6011,-2.6095,-2.6098,-2.6112,-2.6148,-2.6195,-2.6204,-2.6212,-2.6245,-2.6256,-2.612,-2.612,-2.612,0,-2.5446,-2.5526,-2.5547,-2.5604,-2.5639,-2.5645,-2.5705,-2.574,-2.5808,-2.5832,-2.5818,-2.5938,-2.5974,-2.6064,-2.6085,-2.611,-2.6129,-2.6106,-2.6201,-2.6209,-2.6218,-2.6249,-2.6261,-2.6121,-2.6121,-2.6121,-2.6121,0,-2.555,-2.5605,-2.5645,-2.5711,-2.575,-2.5808,-2.584,-2.5877,-2.5887,-2.5913,-2.599,-2.6034,-2.6097,-2.6119,-2.613,-2.6212,-2.6204,-2.6195,-2.617,-2.623,-2.626,-2.6272,-2.6123,-2.6123,-2.6122,-2.6122,0,0,-2.5622,-2.5699,-2.5714,-2.5745,-2.5806,-2.585,-2.591,-2.5972,-2.6004,-2.6052,-2.6105,-2.6185,-2.6178,-2.6214,-2.6229,-2.627,-2.6338,-2.6257,-2.6259,-2.6272,-2.6435,-2.6443,-2.6456,-2.634,-2.6342,-2.6344,-2.6431,0,-2.5696,-2.5802,-2.5824,-2.5916,-2.5969,-2.5978,-2.6031,-2.6075,-2.6101,-2.6152,-2.6181,-2.6239,-2.6224,-2.6246,-2.6287,-2.6321,-2.6371,-2.6315,-2.6391,-2.6394,-2.6379,-2.6471,-2.6479,-2.6559,-2.6443,-2.6445,-2.6446,0,-2.5797,-2.5848,-2.5945,-2.6001,-2.6024,-2.6071,-2.6131,-2.6178,-2.623,-2.6246,-2.6288,-2.6299,-2.6365,-2.6337,-2.6429,-2.639,-2.6423,-2.6444,-2.6448,-2.6457,-2.6424,-2.6485,-2.6585,-2.6598,-2.6465,-2.6463,-2.6462,0,-2.5843,-2.5935,-2.6006,-2.6032,-2.6099,-2.6132,-2.6161,-2.6211,-2.6247,-2.63,-2.6325,-2.6384,-2.6418,-2.6465,-2.6493,-2.6469,-2.6584,-2.6558,-2.6602,-2.6602,-2.6627,-2.6625,-2.6735,-2.6645,-2.6645,-2.6645,-2.6644,0,-2.5925,-2.5985,-2.6028,-2.6071,-2.614,-2.6165,-2.6233,-2.6262,-2.6307,-2.6359,-2.637,-2.6418,-2.6452,-2.6506,-2.6528,-2.6603,-2.6617,-2.6634,-2.664,-2.6634,-2.6632,-2.6657,-2.6653,-2.6648,-2.6647,-2.6646,-2.6646,0,-2.5987,-2.6018,-2.6096,-2.6153,-2.6169,-2.6218,-2.6268,-2.6312,-2.6339,-2.6404,-2.6421,-2.6464,-2.6529,-2.6561,-2.6641,-2.6657,-2.6742,-2.6743,-2.6724,-2.6727,-2.6771,-2.6767,-2.6902,-2.6922,-2.6816,-2.6817,-2.6818,0,-2.6038,-2.6085,-2.6147,-2.6182,-2.6212,-2.6268,-2.6306,-2.6334,-2.6373,-2.6436,-2.6474,-2.6539,-2.6592,-2.6695,-2.6735,-2.6797,-2.6801,-2.6845,-2.6811,-2.6805,-2.6805,-2.6803,-2.6809,-2.6851,-2.6852,-2.6853,-2.6853,0,-2.6127,-2.614,-2.6193,-2.6252,-2.6297,-2.6345,-2.6393,-2.6421,-2.6457,-2.6501,-2.6567,-2.6608,-2.6691,-2.6756,-2.6822,-2.6855,-2.6862,-2.6864,-2.6878,-2.6873,-2.6861,-2.6871,-2.6743,-2.6861,-2.686,-2.6859,-2.6859,-2.6859,-2.6186,-2.6229,-2.628,-2.634,-2.6379,-2.6424,-2.6469,-2.6502,-2.6557,-2.6626,-2.6639,-2.671,-2.6763,-2.6852,-2.6887,-2.6944,-2.6935,-2.6955,-2.6961,-2.6965,-2.6969,-2.6851,-2.6956,-2.6956,-2.6956,-2.6956,-2.6956,0,-2.6277,-2.6311,-2.6365,-2.6432,-2.648,-2.6481,-2.6534,-2.6575,-2.6636,-2.6685,-2.6738,-2.6815,-2.6879,-2.6924,-2.699,-2.7028,-2.7033,-2.7044,-2.7043,-2.7051,-2.6972,-2.6954,-2.7039,-2.7039,-2.7039,-2.7039,-2.7039,-2.7039,-2.633,-2.6403,-2.6423,-2.6517,-2.6551,-2.6619,-2.665,-2.6693,-2.6732,-2.6818,-2.6871,-2.69,-2.6948,-2.7018,-2.7078,-2.709,-2.7115,-2.7127,-2.7139,-2.7065,-2.7056,-2.7048,-2.7031,-2.7132,-2.7132,-2.7214,-2.7215,-2.7216]}]]